FENGYUN 1C DEB, 30918

Orbit data source: Space-Track

FENGYUN 1C DEB, 30918 is space debris in SSO originally from a launch on Mon, 10 May 1999 UTC launched from the Taiyaun Space Center, China (TSC). Fengyun 1C debris stems from the Chinese weather satellite Fengyun-1C, which was intentionally destroyed by a Chinese anti-satellite missile in 2007. This event dramatically increased the amount of space debris, with thousands of trackable fragments posing hazards to satellites and human spaceflight. The Fengyun 1C debris cloud has become a focal point in discussions about space sustainability and the need for international regulations to prevent the creation of new debris.

Loading next visibility...
Identifier
30918, 1999-025AZG
Orbit
SSO
Country
Flag of CNCN / PRC
Related business
Manufacturer
Unknown
Mission
Spacecraft
Bus & Motor
Unknown
Mass
Unknown
Launch date (UTC)
1999-05-10 (26 years ago)
Launch vehicle
Unknown
Launch site
Taiyaun Space Center, China (TSC)
Object type
Payload
Rocket body
Debris
Shape & HBR
Unknown shape, 0.1 m
Radar Cross Section
Small (<0.1 m²)

Expand to show TLE details & history
Last TLE update: 2 days ago

TLE from 2 days ago
0 FENGYUN 1C DEB
1 30918U 99025AZG 25307.80736172  .00002030  00000-0  13466-2 0  9994
2 30918  98.4157  63.2957 0157967 233.5096 280.4095 13.96564990945099
Epoch: 2025-11-03T19:22Z
TLE epoch observation values (Epoch: 2025-11-03T19:22:36.052Z)
Latitude
27.5825°
Longitude
-86.24864°
Altitude
890.047 km
Speed
7.419 km/s
True Right ascension
16h 30m 49s
True Declination
27° 26' 39"
Sunlit
Object was in daylight at epoch
Visualization orbit readout
Latitude
Unknown
Longitude
Unknown
Altitude
Unknown
Speed
Unknown
Apparent Right ascension
Unknown
Apparent Declination
Unknown
Sunlit
N/A
Visualization observer readout
Local Sidereal Time
09:40:15
Azimuth
Unknown
Elevation
Unknown
Doppler factor
Unknown
Orbital elements
Apogee altitude
1,017.906 km
Perigee altitude
787.873 km
Semi-major axis
7,281.027 km
Eccentricity
0.0158
Inclination
98.4157°
RAAN
63.2957°
Arg. of periapsis
233.5096°
True anomaly
278.62304°
Mean anomaly
280.4095°
Eccentric anomaly
279.51687°
Mean motion
3.49345 °/min
Orbital period
103.05 mins
BSTAR
0.0013466
Loading maneuver chart data...
Computing Atmospheric mass density...

Documentation

Showing up to 5 results
|